STARLINK-1750, 46337

Orbit data source: Space-Track

STARLINK-1750, 46337 is a payload satellite owned by SpaceX/Seattle (US) in LEO that was launched on Thu, 03 Sep 2020 UTC via an FALCON 9 launch vehicle from the Air Force Eastern Test Range (AFETR). Payload-class satellites include a variety of spacecraft equipped with specific instruments for various scientific and technological missions. These include communications satellites like Starlink; space stations such as the ISS; scientific satellites like the Hubble; Earth observation satellites from companies like Planet Labs, Umbra, and HawkEye 360; GPS; miniature CubeSats for education and research; and military/defense satellites.

Loading next visibility...
Identifier
46337, 2020-062N
Orbit
LEO
Country
Flag of USUS
Related business
Manufacturer
SpaceX/Seattle
Mission
Partially operational Commercial Communications
Bus & Motor
STARLINK, Unknown motor
Mass
260 kg wet, ~248 kg dry
Launch date (UTC)
2020-09-03 (5 years ago)
Launch vehicle
FALCON 9
Launch site
Air Force Eastern Test Range (AFETR)
Object type
Payload
Rocket body
Debris
Shape & HBR
Box + 1 Pan, 10.1 m
Radar Cross Section
13.562 m², Large (>1 m²)

Expand to show TLE details & history
Last TLE update: 10 hours ago

TLE from 10 hours ago
0 STARLINK-1750
1 46337U 20062N   25287.00005787  .00129056  00000-0  33815-2 0  9999
2 46337  53.0521 289.8454 0005614  39.0283  92.8272 15.37742516  5828
Epoch: 2025-10-14T00:00Z
TLE epoch observation values (Epoch: 2025-10-14T00:00:04.999Z)
Latitude
36.60745°
Longitude
53.27538°
Altitude
455.858 km
Speed
7.644 km/s
True Right ascension
05h 04m 21s
True Declination
36° 26' 09"
Sunlit
Object was in full shadow at epoch
Visualization orbit readout
Latitude
Unknown
Longitude
Unknown
Altitude
Unknown
Speed
Unknown
Apparent Right ascension
Unknown
Apparent Declination
Unknown
Sunlit
N/A
Visualization observer readout
Local Sidereal Time
04:42:01
Azimuth
Unknown
Elevation
Unknown
Doppler factor
Unknown
Orbital elements
Apogee altitude
456.896 km
Perigee altitude
449.226 km
Semi-major axis
6,831.198 km
Eccentricity
0.00056
Inclination
53.0521°
RAAN
289.8454°
Arg. of periapsis
39.0283°
True anomaly
92.89145°
Mean anomaly
92.8272°
Eccentric anomaly
92.85933°
Mean motion
3.84413 °/min
Orbital period
93.65 mins
BSTAR
0.0033815
Loading maneuver chart data...
Computing Atmospheric mass density...
Loading historical data...
Loading historical data...
Loading historical data...
Loading historical data...
Loading historical data...
Loading historical data...
Loading historical data...

Documentation

Showing up to 5 results
|